Regional Weather Roundup
Issued by NWS

Home | Current Version | Previous Version | Graphics & Text | Print | Product List | Glossary On
Versions: 1 2 3 4 5 6 7 8 9 10 11 12 13 14 15 16 17 18 19 20 21 22 23 24 25 26 27 28 29 30 31 32 33 34 35 36 37 38 39 40 41 42 43 44 45 46 47 48 49 50
000
ASUS43 KOAX 181910
RWRNE

WEATHER ROUNDUP FOR NEBRASKA
NATIONAL WEATHER SERVICE OMAHA NE
100 PM CST SUN FEB 18 2018

NOTES: SATELLITE DATA IS BEING USED TO AUGMENT CLOUD COVER ABOVE
       12000 FEET.
       "FAIR" INDICATES FEW OR NO CLOUDS BELOW 12,000 FEET WITH NO
       SIGNIFICANT WEATHER AND/OR OBSTRUCTIONS TO VISIBILITY.


NEZ001>004-019>022-054>056-182000-
NEBRASKA PANHANDLE

CITY           SKY/WX    TMP DP  RH WIND       PRES   REMARKS
SCOTTSBLUFF    MOSUNNY   54  28  36 NE17      29.46R
ALLIANCE       MOSUNNY   46  28  49 NE22      29.48F
CHADRON        PTSUNNY   38  30  73 NE14      29.55R WCI  30
GORDON         MOCLDY    35  30  81 NE14      29.55R WCI  26
KIMBALL        MOSUNNY   63  13  14 W16G24    29.46F
SIDNEY         SUNNY     65  12  12 SW7       29.47F
$$

NEZ057>060-069>072-079>082-182000-
SOUTHWEST NEBRASKA

CITY           SKY/WX    TMP DP  RH WIND       PRES   REMARKS
NORTH PLATTE   PTSUNNY   50  31  48 S14       29.50F
IMPERIAL       MOSUNNY   54  26  34 E3        29.47F
LEXINGTON      PTSUNNY   51  31  47 S12       29.53F
MCCOOK         PTSUNNY   52  31  44 SE9       29.51F
OGALLALA       MOSUNNY   46  26  46 NE3       29.46F
$$

NEZ005>010-023>029-035>040-094-182000-
NORTH CENTRAL NEBRASKA

CITY           SKY/WX    TMP DP  RH WIND       PRES   REMARKS
VALENTINE      CLOUDY    40  28  62 NW23      29.55S WCI  30
AINSWORTH      PTSUNNY   42  31  63 N15       29.54R
BROKEN BOW     PTSUNNY   48  32  53 S14       29.51F
O`NEILL        CLOUDY    49  30  48 SW15G23   29.54S
ORD            PTSUNNY   50  30  46 S21G28    29.52F
THEDFORD       PTSUNNY   50  26  38 N9        29.51F
$$

NEZ041-046>049-061>064-073>077-083>087-182000-
SOUTH CENTRAL NEBRASKA

CITY           SKY/WX    TMP DP  RH WIND       PRES   REMARKS
GRAND ISLAND   CLOUDY    53  30  41 S26G48    29.56F
AURORA         CLOUDY    54  30  40 S28G35    29.56F
HASTINGS       CLOUDY    53  28  38 S25G37    29.56F
HEBRON         MOSUNNY   59  35  41 S29G39    29.63F
HOLDREGE       CLOUDY    52  30  42 S26G35    29.53F
KEARNEY        CLOUDY    51  29  42 S30       29.53F
YORK           CLOUDY    55  32  41 S32G39    29.58F
$$

NEZ011>018-030>034-042>045-182000-
NORTHEAST NEBRASKA

CITY           SKY/WX    TMP DP  RH WIND       PRES   REMARKS
NORFOLK        MOSUNNY   45  31  58 S12G21    29.56S
ALBION         CLOUDY    48  31  52 S17       29.55F
BLAIR          MOSUNNY   52  28  39 S28G49    29.62F
COLUMBUS       CLOUDY    49  32  52 S21G31    29.57F
FREMONT        CLOUDY    53  28  39 S29G37    29.60F
TEKAMAH        CLOUDY    50  33  52 S29G41    29.62F
WAYNE          MOSUNNY   46  31  56 S22G35    29.55F
$$

NEZ050>053-065>068-078-088>093-182000-
SOUTHEAST NEBRASKA

CITY           SKY/WX    TMP DP  RH WIND       PRES   REMARKS
LINCOLN        MOSUNNY   56  29  35 S28G41    29.64F
OMAHA EPPLEY   PTSUNNY   54  24  31 S38G54    29.64F
BEATRICE       CLOUDY    56  29  35 S29G38    29.66F
FALLS CITY     CLOUDY    55  23  28 S25G44    29.76F
NEBRASKA CITY  MOSUNNY   54  28  36 S33G40    29.68F
PLATTSMOUTH    CLOUDY    54  27  35 S26G33    29.68F
$$

NEZ044-045-051>053-067-182000-
OMAHA AREA

CITY           SKY/WX    TMP DP  RH WIND       PRES   REMARKS
OMAHA EPPLEY   PTSUNNY   54  24  31 S38G54    29.64F
BLAIR          MOSUNNY   52  28  39 S28G49    29.62F
FREMONT        CLOUDY    53  28  39 S29G37    29.60F
MILLARD        CLOUDY    56  27  33 S14G30    29.65F
OFFUTT AFB     CLOUDY    55  26  33 S26G41    29.65F
PLATTSMOUTH    CLOUDY    54  27  35 S26G33    29.68F
WAHOO          FAIR      54  28  36 S31G39    29.63F
$$



USA.gov is the U.S. government's official web portal to all federal, state and local government web resources and services.